Location: Caltech
(34.1382°N, 118.1253°W)
Time: 01:13:04
(UTC-07:00)

CZ-2C R/B - Visible Passes

Search period start: 18 April 2014 00:00
Search period end: 28 April 2014 00:00
Orbit: 670 x 787 km, 98.1° (Epoch: 17 April)

Date Brightness Start Highest point End Pass type
(mag) Time Alt. Az. Time Alt. Az. Time Alt. Az.
18 Apr 2.5 19:53:33 10° SSE 19:57:59 51° ENE 20:02:31 10° N visible
18 Apr 5.1 21:34:52 10° WSW 21:36:34 12° W 21:38:17 10° WNW visible
19 Apr 3.5 20:44:28 10° S 20:48:46 41° W 20:53:11 10° NNW visible
20 Apr 2.4 19:56:50 10° SSE 20:01:19 57° ENE 20:05:55 10° N visible
20 Apr 5.2 21:38:51 10° WSW 21:39:57 11° W 21:41:04 10° WNW visible
21 Apr 3.7 20:47:54 10° SSW 20:52:08 37° W 20:56:30 10° NNW visible
22 Apr 2.3 20:00:07 10° SSE 20:04:39 63° ENE 20:09:20 10° N visible
23 Apr 3.9 20:51:20 10° SSW 20:55:30 34° W 20:59:48 10° NNW visible
24 Apr 2.3 20:03:25 10° SSE 20:07:59 69° ENE 20:12:44 10° N visible
25 Apr 4.0 20:54:46 10° SSW 20:58:52 31° W 21:03:06 10° NW visible
26 Apr 2.3 20:06:42 10° SSE 20:11:20 76° ENE 20:16:07 10° N visible
27 Apr 4.2 20:58:13 10° SSW 21:02:14 29° W 21:06:23 10° NW visible
